Regional Weather Roundup
Issued by NWS Northern Indiana

Home | Current Version | Previous Version | Graphics & Text | Print | Product List | Glossary On
Versions: 1 2 3 4 5 6 7 8 9 10 11 12 13 14 15 16 17 18 19 20 21 22 23 24 25 26 27 28 29 30 31 32 33 34 35 36 37 38 39 40 41 42 43 44 45 46 47 48 49 50
000
ASUS43 KIWX 291100
RWRIWX

KIWX WEATHER ROUNDUP
NATIONAL WEATHER SERVICE NORTHERN INDIANA
700 AM EDT SUN MAY 29 2016

NOTE: "FAIR" INDICATES FEW OR NO CLOUDS BELOW 12,000 FEET WITH NO
SIGNIFICANT WEATHER AND/OR OBSTRUCTIONS TO VISIBILITY.

* THESE STATIONS ARE NOT UNDER NWS QUALITY CONTROL. THEY ALSO MAY NOT
  REPORT WEATHER SUCH AS PRECIPITATION OR FOG.

INZ001>027-291200-
NORTHERN INDIANA

CITY           SKY/WX    TMP DP  RH WIND       PRES   REMARKS
GARY*          PTCLDY    66  66 100 S8        30.00R
KNOX*          CLEAR     63  48  59 S8        30.02R
SOUTH BEND     PTCLDY    65  59  81 S8        30.02R
GOSHEN         CLOUDY    68  63  84 S7        30.03R
MONTICELLO*    PTCLDY    67  61  79 S7        30.03R
ANGOLA*          N/A     66  57  72 S5        30.04R
FORT WAYNE     MOCLDY    68  65  90 S9        30.05R
PERU/GRISSOM   PTCLDY    67  67 100 SW9       30.04R

$$
INZ028>050-291200-
CENTRAL INDIANA

CITY           SKY/WX    TMP DP  RH WIND       PRES   REMARKS
LAFAYETTE      CLEAR     63  61  93 CALM      30.03R
KOKOMO*        MOCLDY    66  63  88 S8        30.04S
MUNCIE*        CLOUDY    70  64  81 S6        30.07R
INDIANAPOLIS   MOCLDY    68  65  90 S9        30.05S

$$
MIZ043>046-050>051-056>058-064>065-071>073-077>080-291200-
SOUTHWEST LOWER MICHIGAN

CITY           SKY/WX    TMP DP  RH WIND       PRES   REMARKS
BATTLE CREEK   CLEAR     66  64  93 S10       30.02R
BENTON HARBOR  PTCLDY    66  57  72 S5        30.00R
COLDWATER*     PTCLDY    67  64  91 SW6       30.03R FOG
HILLSDALE*     CLOUDY    67  64  92 S8        30.04R FOG
HOLLAND        PTCLDY    66  58  75 S6        29.99R
GRAND RAPIDS   MOCLDY    69  64  84 S8        29.99R
KALAMAZOO      CLEAR     68  63  84 S8        30.01R
STURGIS*       PTCLDY    67  64  93 SW5       30.02R
THREE RIVERS*  FAIR      68  64  88 S7        30.03R

$$
OHZ001>008-015>018-024>025-291200-
NORTHWEST OHIO

CITY           SKY/WX    TMP DP  RH WIND       PRES   REMARKS
DEFIANCE       MOCLDY    70  64  81 S7        30.05S
FINDLAY        PTCLDY    70  62  76 S8        30.07R
TOLEDO EXPRESS CLOUDY    69  64  84 S8        30.05R
TOLEDO METCALF PTCLDY    70  63  78 S6        30.06S
LIMA           CLOUDY    69  64  84 S8        30.08S

$$
AND FOR LAKE MICHIGAN COASTAL AND OPEN LAKE BUOY OBSERVATIONS

STATION/POSITION TEMP    WIND        PRES    VSBY  WAVE
                 AIR SEA DIR/SP/G                  HT/PER
                 (F)     (DEG/KT/KT) (MB)    (MI)  (FT/S)
CALUMET HARBOR    65     200/  6/  8 1014.4R
MICHIGAN CITY     67     170/ 13/ 17   N/A
BURNS HARBOR      66     190/ 11/ 16 1015.6R
SAINT JOSEPH      67     130/  1/  4 1015.9R
SOUTH LAKE BUOY   56 50  190/ 12/ 14 1013.6          1/ 4
4 MI NW BRIDGMAN  64 61  160/  8/  8   N/A           1
MICHIGAN CITY     63 56  210/ 10/ 12   N/A           1/ 2

$$
&&




USA.gov is the U.S. government's official web portal to all federal, state and local government web resources and services.